GW0441 Weather Reports


Display with metric or nautical units.
time (UTC)temp
F
wind
direction
speed
MPH
gust
MPH
rain 1hr
in
rain 24hr
in
rain mn
in
humidity
%
barometer
mb
20260906213055 103 156 4.0 18.0 0.00 0.00 0.00 27 1012.0
20260906211558 103 145 10.0 19.0 0.00 0.00 0.00 28 1012.1
20260906210051 102 163 8.0 18.0 0.00 0.00 0.00 29 1012.4
20260906204620 103 126 7.0 17.0 0.00 0.00 0.00 29 1012.5
20260906203054 102 155 15.0 19.0 0.00 0.00 0.00 30 1012.9
20260906201615 101 136 12.0 18.0 0.00 0.00 0.00 31 1013.1
20260906200052 102 146 11.0 18.0 0.00 0.00 0.00 29 1013.2
20260906194602 103 184 3.0 17.0 0.00 0.00 0.00 29 1013.4
20260906193054 102 0 4.0 17.0 0.00 0.00 0.00 30 1013.6
20260906191552 101 157 13.0 19.0 0.00 0.00 0.00 28 1013.8
20260906190051 99 116 12.0 17.0 0.00 0.00 0.00 32 1013.8
20260906184559 99 116 11.0 19.0 0.00 0.00 0.00 33 1014.0
20260906183101 100 153 9.0 17.0 0.00 0.00 0.00 34 1014.3
20260906181557 100 133 8.0 19.0 0.00 0.00 0.00 35 1014.4
20260906180049 100 117 6.0 13.0 0.00 0.00 0.00 34 1014.6
20260906174608 100 132 9.0 16.0 0.00 0.00 0.00 35 1014.9
20260906173055 99 119 13.0 18.0 0.00 0.00 0.00 35 1014.9
20260906171556 99 99 7.0 17.0 0.00 0.00 0.00 36 1015.2
20260906170100 99 0 1.0 16.0 0.00 0.00 0.00 37 1015.6
20260906164546 98 155 6.0 11.0 0.00 0.00 0.00 38 1015.8
20260906163055 97 140 1.0 11.0 0.00 0.00 0.00 39 1016.0
20260906161556 96 0 1.0 8.0 0.00 0.00 0.00 41 1016.1
20260906160049 96 84 0.0 4.0 0.00 0.00 0.00 42 1015.9
20260906154558 94 0 0.0 7.0 0.00 0.00 0.00 44 1016.0
20260906153112 93 0 0.0 1.0 0.00 0.00 0.00 45 1015.9
20260906151552 92 111 0.0 1.0 0.00 0.00 0.00 47 1015.8
20260906150050 90 0 0.0 0.0 0.00 0.00 0.00 49 1015.6
20260906144553 90 0 0.0 4.0 0.00 0.00 0.00 49 1015.7
20260906143056 89 0 0.0 0.0 0.00 0.00 0.00 51 1015.8
20260906141556 87 0 0.0 0.0 0.00 0.00 0.00 53 1015.8
20260906140056 85 0 0.0 0.0 0.00 0.00 0.00 57 1015.6
20260906134549 83 0 0.0 0.0 0.00 0.00 0.00 59 1015.5
20260906133100 82 0 0.0 0.0 0.00 0.00 0.00 61 1015.3
20260906131554 80 0 0.0 0.0 0.00 0.00 0.00 64 1015.3
20260906124548 77 0 0.0 5.0 0.00 0.00 0.00 67 1014.7
20260906123058 77 144 3.0 5.0 0.00 0.00 0.00 67 1014.6
20260906121603 77 157 3.0 7.0 0.00 0.00 0.00 67 1014.5
20260906120054 77 182 5.0 7.0 0.00 0.00 0.00 67 1014.2
20260906114549 77 172 4.0 7.0 0.00 0.00 0.00 66 1014.0
20260906113057 77 165 5.0 9.0 0.00 0.00 0.00 66 1014.0
20260906111619 77 192 4.0 6.0 0.00 0.00 0.00 65 1013.8
20260906110053 78 170 4.0 7.0 0.00 0.00 0.00 64 1013.8
20260906104551 78 195 5.0 8.0 0.00 0.00 0.00 64 1013.6
20260906103046 78 0 0.0 0.0 0.00 0.00 0.00 63 1013.5
20260906101557 78 0 0.0 0.0 0.00 0.00 0.00 63 1013.5
20260906100053 78 0 0.0 0.0 0.00 0.00 0.00 62 1013.4
20260906094547 79 0 0.0 0.0 0.00 0.00 0.00 60 1013.3
20260906093104 80 0 0.0 0.0 0.00 0.00 0.00 59 1013.3
20260906091553 80 211 3.0 6.0 0.00 0.00 0.00 58 1013.4
20260906090111 81 185 4.0 7.0 0.00 0.00 0.00 57 1013.5
20260906084611 81 0 0.0 0.0 0.00 0.00 0.00 56 1013.4
20260906083057 81 0 0.0 0.0 0.00 0.00 0.00 55 1013.2
20260906081600 82 0 0.0 0.0 0.00 0.00 0.00 54 1013.3
20260906080100 82 0 0.0 0.0 0.00 0.00 0.00 53 1013.2
20260906074603 83 0 0.0 0.0 0.00 0.00 0.00 52 1013.3
20260906073055 83 0 0.0 0.0 0.00 0.00 0.00 51 1013.3
20260906071557 84 195 4.0 7.0 0.00 0.00 0.00 51 1013.3
20260906070115 84 171 6.0 12.0 0.00 0.00 0.00 50 1013.1
20260906064552 84 165 5.0 9.0 0.00 0.00 0.00 50 1013.1
20260906063051 84 172 4.0 10.0 0.00 0.00 0.00 49 1013.0
20260906061632 85 139 4.0 10.0 0.00 0.00 0.00 49 1013.3
20260906060057 85 176 6.0 10.0 0.00 0.00 0.00 48 1013.3
20260906054553 86 190 5.0 10.0 0.00 0.00 0.00 47 1013.4
20260906053058 87 161 7.0 12.0 0.00 0.00 0.00 46 1013.5
20260906051554 88 165 10.0 15.0 0.00 0.00 0.00 45 1013.7
20260906050108 88 151 8.0 13.0 0.00 0.00 0.00 45 1013.7
20260906044550 88 171 7.0 13.0 0.00 0.00 0.00 44 1013.6
20260906043109 88 146 9.0 14.0 0.00 0.00 0.00 43 1013.7
20260906041546 88 151 9.0 13.0 0.00 0.00 0.00 43 1013.8
20260906040113 89 140 8.0 13.0 0.00 0.00 0.00 43 1013.7
20260906034550 89 146 9.0 14.0 0.00 0.00 0.00 42 1013.6
20260906033058 90 150 10.0 14.0 0.00 0.00 0.00 42 1013.6
20260906031603 90 141 10.0 15.0 0.00 0.00 0.00 41 1013.3
20260906030104 90 135 10.0 13.0 0.00 0.00 0.00 41 1013.0
20260906024558 91 146 11.0 15.0 0.00 0.00 0.00 40 1012.7
20260906023122 91 136 10.0 13.0 0.00 0.00 0.00 39 1012.5
20260906021555 92 140 9.0 13.0 0.00 0.00 0.00 39 1012.3
20260906020053 92 118 9.0 13.0 0.00 0.00 0.00 38 1012.1
20260906014623 92 126 8.0 12.0 0.00 0.00 0.00 37 1011.8
20260906013059 93 140 7.0 11.0 0.00 0.00 0.00 36 1011.6
20260906011559 95 134 8.0 16.0 0.00 0.00 0.00 35 1011.4
20260906010053 95 134 9.0 13.0 0.00 0.00 0.00 35 1011.3
20260906004608 96 138 11.0 16.0 0.00 0.00 0.00 34 1011.2
20260906003056 97 151 10.0 15.0 0.00 0.00 0.00 34 1011.1
20260906001553 98 154 12.0 17.0 0.00 0.00 0.00 32 1011.0
20260906000056 99 143 12.0 17.0 0.00 0.00 0.00 31 1011.0
20260905234602 100 130 10.0 17.0 0.00 0.00 0.00 31 1010.7
20260905233057 100 138 10.0 16.0 0.00 0.00 0.00 31 1010.6
20260905231554 100 119 9.0 16.0 0.00 0.00 0.00 31 1010.5
20260905230101 101 158 9.0 16.0 0.00 0.00 0.00 30 1010.6
20260905224605 101 145 11.0 18.0 0.00 0.00 0.00 30 1010.7
20260905223053 102 138 9.0 16.0 0.00 0.00 0.00 29 1010.8
20260905221549 102 152 8.0 16.0 0.00 0.00 0.00 29 1010.8
20260905220106 102 164 5.0 18.0 0.00 0.00 0.00 30 1010.8
20260905214553 102 202 7.0 17.0 0.00 0.00 0.00 28 1011.1